[[{"header":{"parameterUnit":"m.s-1","parameterCategory":2,"la1":30.2991,"la2":30.254,"lo1":-89.0895,"lo2":-89.0444,"dy":0.0017,"dx":0.0017,"nx":28,"ny":28,"refTime":"2025-12-06T09:00:00:Z","depth":"0","parameterNumber":2,"parameterNumberName":"U-component_of_CURRENTS"},"data":[0,0,0,0,0,0,0,0,0,0,0,0,0,0,0,0,0,0,0,0,0,0,0,0,0,0,0,0,0,0,0,0,0,0,0,0,0,0,0,0,0,0,0,0,0,0,0,0,0,0,0,0,0,0,0,0,0,0,-0.2983,-0.2984,0,-0.3006,-0.3006,-0.3006,-0.296,-0.2958,-0.2957,-0.2956,-0.2912,-0.2912,-0.2912,0,0,0,0,0,0,0,0,0,0,0,0,0,-0.2899,-0.29,-0.2983,-0.2984,-0.2984,-0.3006,-0.3006,-0.3006,-0.296,-0.2958,-0.2957,-0.2955,-0.2912,-0.2912,-0.2912,0,0,0,0,0,0,0,0,0,0,0,0,0,-0.2927,-0.2901,-0.2983,-0.2966,-0.2965,-0.3006,-0.3006,-0.3006,-0.296,-0.2958,-0.2956,-0.2955,-0.2912,-0.2912,-0.2912,-0.2949,0,0,-0.2912,-0.2912,0,0,0,0,0,0,0,0,-0.2925,-0.293,-0.2968,-0.2967,-0.2966,-0.2981,-0.296,-0.2985,-0.2961,-0.2959,-0.2956,-0.2954,-0.2932,-0.293,-0.2935,-0.2947,-0.2945,-0.2912,-0.2912,-0.2912,-0.2912,0,0,0,0,0,0,0,-0.2924,-0.2929,-0.2989,-0.2969,-0.2968,-0.2958,-0.2959,-0.2965,-0.2952,-0.2959,-0.2956,-0.2964,-0.293,-0.2935,-0.2934,-0.2944,-0.2912,-0.2912,-0.2911,-0.2911,-0.2953,-0.2954,0,0,0,0,0,0,-0.293,-0.2927,-0.2988,-0.299,-0.2944,-0.2961,-0.2962,-0.2976,-0.2953,-0.2949,-0.2966,-0.2962,-0.2936,-0.2934,-0.2932,-0.2954,-0.2912,-0.2911,-0.2911,-0.2952,-0.2953,-0.2954,0,0,0,0,0,0,-0.2928,-0.2935,-0.2988,-0.2961,-0.2967,-0.2965,-0.2979,-0.2977,-0.2975,-0.296,-0.2954,-0.2966,-0.2935,-0.2932,-0.2936,-0.2952,-0.2911,-0.2911,-0.295,-0.2952,-0.2954,-0.3011,0,0,0,0,0,0,-0.2925,-0.2934,-0.294,-0.2962,-0.2969,-0.3012,-0.2982,-0.2979,-0.2985,-0.298,-0.2958,-0.2953,-0.2933,-0.2936,-0.2936,-0.2951,-0.2911,-0.2949,-0.2951,-0.2953,-0.3008,-0.3014,-0.302,0,0,0,0,0,-0.2922,-0.2941,-0.294,-0.2948,-0.2979,-0.3014,-0.3016,-0.3005,-0.2987,-0.2994,-0.2978,-0.2953,-0.2948,-0.2937,-0.2937,-0.2953,-0.2948,-0.2951,-0.2953,-0.3005,-0.3013,-0.302,0,0,0,0,0,0,-0.2902,-0.2939,-0.2938,-0.2965,-0.2988,-0.3007,-0.3012,-0.3011,-0.3007,-0.2996,-0.2972,-0.2967,-0.2977,-0.2961,-0.295,-0.2971,-0.2943,-0.2946,-0.2982,-0.299,-0.2996,-0.2993,-0.2911,0,0,0,0,0,-0.2905,-0.2925,-0.296,-0.2977,-0.2992,-0.3004,-0.3014,-0.3014,-0.3018,-0.3014,-0.3001,-0.2989,-0.2992,-0.2986,-0.2985,-0.3001,-0.2973,-0.301,-0.3016,-0.3021,-0.3019,-0.3006,-0.301,-0.2963,-0.2963,-0.2963,0,0,-0.2898,-0.2923,-0.2931,-0.2974,-0.2987,-0.3019,-0.3004,-0.3026,-0.3045,-0.3012,-0.3022,-0.3015,-0.3003,-0.3017,-0.302,-0.3002,-0.3019,-0.3024,-0.3029,-0.3023,-0.3009,-0.3013,-0.3017,-0.2964,-0.2964,-0.2964,0,0,-0.2905,-0.2923,-0.2945,-0.2974,-0.3009,-0.3025,-0.3035,-0.3061,-0.3061,-0.3083,-0.3062,-0.3064,-0.3066,-0.3061,-0.3059,-0.3102,-0.3057,-0.3101,-0.3125,-0.3113,-0.3116,-0.3119,-0.308,-0.3078,-0.3098,-0.3098,-0.3099,0,-0.2894,-0.293,-0.2955,-0.2992,-0.3013,-0.3031,-0.3061,-0.3081,-0.31,-0.3104,-0.3088,-0.3096,-0.3088,-0.3104,-0.3117,-0.3116,-0.3089,-0.3097,-0.312,-0.3122,-0.3124,-0.3083,-0.3081,-0.3102,-0.3101,-0.3101,-0.3101,0,-0.2922,-0.2953,-0.2971,-0.3021,-0.305,-0.3079,-0.3118,-0.3138,-0.314,-0.3151,-0.3166,-0.3158,-0.3155,-0.3162,-0.3153,-0.3168,-0.3138,-0.3133,-0.3099,-0.3132,-0.3087,-0.3083,-0.3106,-0.3105,-0.3104,-0.3103,0,0,-0.2885,-0.2973,-0.2976,-0.3001,-0.3066,-0.309,-0.3136,-0.3175,-0.319,-0.3206,-0.3216,-0.3233,-0.3218,-0.3215,-0.3205,-0.3198,-0.3191,-0.3172,-0.317,-0.3129,-0.3141,-0.3062,-0.3051,-0.3189,-0.3189,-0.3189,-0.3101,0,-0.2891,-0.2956,-0.3002,-0.3051,-0.3084,-0.3127,-0.3167,-0.3204,-0.3223,-0.324,-0.3242,-0.3248,-0.3243,-0.3235,-0.3234,-0.3209,-0.3187,-0.3214,-0.3118,-0.3115,-0.3038,-0.3046,-0.2923,-0.2829,-0.3097,-0.3097,-0.3096,0,-0.2892,-0.2937,-0.299,-0.3062,-0.3079,-0.3111,-0.316,-0.32,-0.3244,-0.3256,-0.327,-0.3268,-0.3274,-0.3257,-0.3223,-0.3239,-0.3192,-0.3164,-0.316,-0.3063,-0.3031,-0.2842,-0.2813,-0.2788,-0.3091,-0.3091,-0.3091,0,-0.2832,-0.2921,-0.2955,-0.2982,-0.3073,-0.3093,-0.3134,-0.319,-0.3215,-0.3257,-0.3265,-0.3279,-0.3266,-0.324,-0.3195,-0.3205,-0.3137,-0.3141,-0.3019,-0.3012,-0.2875,-0.2856,-0.2805,-0.3097,-0.3097,-0.3098,-0.3098,0,-0.2811,-0.2833,-0.2927,-0.2943,-0.2972,-0.3053,-0.308,-0.3127,-0.3185,-0.3205,-0.3256,-0.3257,-0.326,-0.3229,-0.3191,-0.3089,-0.3129,-0.3014,-0.2986,-0.289,-0.2874,-0.2821,-0.2848,-0.3094,-0.3095,-0.3096,-0.3096,0,-0.2723,-0.2796,-0.2831,-0.292,-0.2942,-0.2955,-0.3035,-0.3057,-0.3131,-0.3156,-0.3167,-0.3223,-0.3186,-0.3165,-0.3108,-0.3058,-0.2926,-0.2933,-0.2809,-0.2768,-0.2634,-0.2668,-0.2577,-0.2502,-0.2783,-0.2781,-0.2779,0,-0.2681,-0.2693,-0.2777,-0.2788,-0.282,-0.2863,-0.2889,-0.2996,-0.3028,-0.3123,-0.3122,-0.3122,-0.3083,-0.2982,-0.2903,-0.2799,-0.2805,-0.263,-0.2633,-0.2599,-0.2618,-0.2647,-0.2594,-0.2468,-0.2463,-0.246,-0.2457,0,-0.2576,-0.2607,-0.2634,-0.2664,-0.269,-0.2725,-0.278,-0.2801,-0.2924,-0.2948,-0.2967,-0.2947,-0.2887,-0.274,-0.2633,-0.2563,-0.2566,-0.255,-0.2549,-0.2391,-0.2385,-0.2307,-0.255,-0.2424,-0.2428,-0.243,-0.2432,-0.2433,-0.247,-0.2461,-0.2498,-0.2507,-0.254,-0.255,-0.2527,-0.2606,-0.2621,-0.2635,-0.2738,-0.2675,-0.2621,-0.2451,-0.2378,-0.2231,-0.2311,-0.2168,-0.2217,-0.2252,-0.2171,-0.2334,-0.2166,-0.2168,-0.2169,-0.217,-0.2172,0,-0.2325,-0.2333,-0.2338,-0.2349,-0.2317,-0.2389,-0.2416,-0.2368,-0.2326,-0.2396,-0.2379,-0.2344,-0.2195,-0.2165,-0.2041,-0.1938,-0.1893,-0.1899,-0.1918,-0.1881,-0.2031,-0.2008,-0.1757,-0.1757,-0.1757,-0.1757,-0.1757,-0.1757,-0.225,-0.2202,-0.2208,-0.2109,-0.211,-0.2013,-0.1987,-0.1945,-0.1955,-0.1902,-0.1926,-0.2002,-0.2008,-0.2091,-0.193,-0.1821,-0.178,-0.1715,-0.1759,-0.1888,-0.1918,-0.1946,-0.193,-0.1667,-0.1667,-0.1523,-0.1523,-0.1522]},{"header":{"parameterUnit":"m.s-1","parameterCategory":2,"la1":30.2991,"la2":30.254,"lo1":-89.0895,"lo2":-89.0444,"dy":0.0017,"dx":0.0017,"nx":28,"ny":28,"refTime":"2025-12-06T09:00:00:Z","depth":"0","parameterNumber":3,"parameterNumberName":"V-component_of_CURRENTS"},"data":[0,0,0,0,0,0,0,0,0,0,0,0,0,0,0,0,0,0,0,0,0,0,0,0,0,0,0,0,0,0,0,0,0,0,0,0,0,0,0,0,0,0,0,0,0,0,0,0,0,0,0,0,0,0,0,0,0,0,-0.0458,-0.0457,0,-0.0363,-0.0362,-0.0361,-0.0293,-0.0293,-0.0292,-0.0292,-0.0148,-0.0145,-0.0141,0,0,0,0,0,0,0,0,0,0,0,0,0,-0.0523,-0.0522,-0.0458,-0.0457,-0.0456,-0.0363,-0.0362,-0.036,-0.0293,-0.0293,-0.0292,-0.0292,-0.0149,-0.0145,-0.0141,0,0,0,0,0,0,0,0,0,0,0,0,0,-0.0466,-0.0522,-0.0458,-0.0413,-0.0408,-0.0363,-0.0362,-0.036,-0.0293,-0.0293,-0.0292,-0.0292,-0.0151,-0.0146,-0.0141,-0.0119,0,0,-0.0125,-0.0122,0,0,0,0,0,0,0,0,-0.047,-0.0464,-0.042,-0.0416,-0.041,-0.0341,-0.0332,-0.0278,-0.0293,-0.0335,-0.0292,-0.0291,-0.021,-0.02,-0.0181,-0.0112,-0.0106,-0.0124,-0.0121,-0.0119,-0.0117,0,0,0,0,0,0,0,-0.0474,-0.0467,-0.0418,-0.0419,-0.0413,-0.0377,-0.0369,-0.0321,-0.0274,-0.0331,-0.0327,-0.0319,-0.0206,-0.0186,-0.0177,-0.0104,-0.0124,-0.012,-0.0116,-0.0114,0.0007,0.0008,0,0,0,0,0,0,-0.0493,-0.0471,-0.0421,-0.0416,-0.0441,-0.0377,-0.0367,-0.0362,-0.0276,-0.0263,-0.032,-0.0316,-0.0196,-0.0183,-0.0172,-0.0139,-0.0119,-0.0114,-0.0111,0.0007,0.0007,0.0008,0,0,0,0,0,0,-0.0495,-0.049,-0.0425,-0.0443,-0.0432,-0.0377,-0.0371,-0.0361,-0.0341,-0.0268,-0.0254,-0.0311,-0.0195,-0.0179,-0.0131,-0.0133,-0.0111,-0.0107,0.0007,0.0007,0.0008,-0.0074,0,0,0,0,0,0,-0.0497,-0.0491,-0.0495,-0.0444,-0.0432,-0.0408,-0.0372,-0.0359,-0.0338,-0.0333,-0.0256,-0.0242,-0.0193,-0.0139,-0.0126,-0.0125,-0.0103,0.0007,0.0007,0.0007,-0.0071,-0.0076,-0.0081,0,0,0,0,0,-0.05,-0.0511,-0.0496,-0.049,-0.0439,-0.0409,-0.0399,-0.0356,-0.0339,-0.0335,-0.0281,-0.0244,-0.0128,-0.0135,-0.0119,-0.0117,0.0007,0.0007,0.0007,-0.0069,-0.0075,-0.0081,0,0,0,0,0,0,-0.054,-0.0504,-0.0486,-0.0485,-0.0454,-0.0398,-0.0393,-0.0364,-0.0318,-0.0313,-0.0242,-0.0225,-0.0183,-0.0139,-0.0148,-0.008,-0.0055,-0.0051,-0.0118,-0.0123,-0.0128,-0.0147,-0.0098,0,0,0,0,0,-0.0553,-0.0552,-0.0509,-0.0508,-0.0497,-0.0446,-0.0429,-0.0402,-0.0355,-0.0335,-0.0281,-0.0222,-0.017,-0.014,-0.0089,-0.0053,-0.0004,-0.004,-0.0045,-0.005,-0.0054,0.0017,0.0018,0.0008,0.0008,0.0008,0,0,-0.0568,-0.0549,-0.0547,-0.0517,-0.0489,-0.0481,-0.0434,-0.0416,-0.0404,-0.0326,-0.0294,-0.0239,-0.0165,-0.0124,-0.0101,-0.0087,-0.0021,-0.0049,-0.0054,-0.0055,0.0017,0.0018,0.0019,0.0008,0.0008,0.0008,0,0,-0.0605,-0.0582,-0.0597,-0.0576,-0.0545,-0.051,-0.051,-0.046,-0.0432,-0.0396,-0.0335,-0.0283,-0.0208,-0.0152,-0.0115,-0.0115,-0.0052,-0.01,-0.0135,-0.0068,-0.0066,-0.0065,-0.0006,0.0002,-0.01,-0.01,-0.01,0,-0.0627,-0.0636,-0.0596,-0.0604,-0.0593,-0.053,-0.0541,-0.0503,-0.0442,-0.0417,-0.0398,-0.0277,-0.022,-0.0156,-0.0158,-0.0126,-0.0081,-0.0123,-0.0075,-0.0072,-0.0069,-0.0009,0.0,-0.0104,-0.0103,-0.0103,-0.0103,0,-0.0674,-0.0679,-0.0686,-0.0674,-0.0655,-0.0654,-0.06,-0.0574,-0.0532,-0.0486,-0.042,-0.0338,-0.0264,-0.0238,-0.0199,-0.0147,-0.012,-0.0093,-0.0066,-0.0073,-0.0009,0.0002,-0.0109,-0.0108,-0.0107,-0.0106,0,0,-0.0724,-0.0722,-0.0724,-0.0732,-0.0694,-0.0684,-0.066,-0.0616,-0.0594,-0.0526,-0.0487,-0.0397,-0.0345,-0.0299,-0.0234,-0.0178,-0.0121,-0.0137,-0.0131,-0.0089,0.0024,0.0074,0.0092,-0.0087,-0.0085,-0.0084,0.0058,0,-0.0773,-0.0817,-0.079,-0.0814,-0.0829,-0.0766,-0.0748,-0.0696,-0.0634,-0.0579,-0.048,-0.0421,-0.0368,-0.0334,-0.0268,-0.0153,-0.0094,-0.0162,0.0035,0.004,0.0078,0.0105,0.0149,0.0282,0.007,0.0072,0.0073,0,-0.0827,-0.0849,-0.0894,-0.0889,-0.0887,-0.0885,-0.0837,-0.081,-0.0711,-0.0662,-0.0576,-0.0493,-0.039,-0.0352,-0.0163,-0.0209,-0.0106,-0.002,-0.0011,0.0071,0.0111,0.0259,0.0312,0.0473,0.0091,0.009,0.0088,0,-0.0893,-0.0915,-0.0956,-0.0957,-0.0941,-0.0938,-0.0917,-0.0839,-0.0812,-0.0709,-0.067,-0.0534,-0.046,-0.0315,-0.0132,-0.0147,0.0079,0.0087,0.023,0.0235,0.033,0.034,0.0555,0.0213,0.0213,0.0212,0.0212,0,-0.0959,-0.0986,-0.0994,-0.1018,-0.1052,-0.1009,-0.101,-0.0963,-0.0888,-0.085,-0.0719,-0.0648,-0.0449,-0.0291,-0.0137,0.0093,0.0085,0.0234,0.0281,0.0303,0.0308,0.0499,0.0555,0.0218,0.0217,0.0216,0.0215,0,-0.1025,-0.1031,-0.1079,-0.1086,-0.1089,-0.1112,-0.1088,-0.1079,-0.0996,-0.0938,-0.091,-0.0727,-0.0512,-0.0296,-0.0044,0.0092,0.0412,0.0378,0.0386,0.0431,0.0694,0.0742,0.1004,0.1098,0.0554,0.0556,0.0558,0,-0.1064,-0.11,-0.1142,-0.1175,-0.1183,-0.1203,-0.1213,-0.1148,-0.1127,-0.0975,-0.095,-0.0736,-0.056,-0.0161,0.0116,0.0414,0.053,0.061,0.0589,0.073,0.0819,0.0853,0.0914,0.0685,0.0688,0.069,0.0692,0,-0.1133,-0.1148,-0.1188,-0.1266,-0.1298,-0.1324,-0.1326,-0.1328,-0.123,-0.1142,-0.0986,-0.0829,-0.0431,-0.0065,0.0316,0.0496,0.0737,0.0663,0.0825,0.0956,0.0995,0.11,0.0558,0.0712,0.071,0.0709,0.0707,0.0707,-0.1172,-0.1225,-0.1281,-0.1347,-0.1389,-0.1426,-0.1437,-0.1405,-0.1347,-0.1185,-0.1028,-0.0736,-0.0226,0.033,0.0537,0.097,0.092,0.109,0.1141,0.1166,0.125,0.0742,0.0936,0.0935,0.0934,0.0934,0.0933,0,-0.1218,-0.1278,-0.1355,-0.1429,-0.1484,-0.1482,-0.1491,-0.1456,-0.1376,-0.1179,-0.0977,-0.0385,0.0129,0.0599,0.1199,0.1431,0.1478,0.1546,0.1613,0.1655,0.1236,0.1234,0.1483,0.1483,0.1482,0.1482,0.1482,0.1482,-0.1244,-0.1331,-0.1376,-0.1483,-0.153,-0.156,-0.1557,-0.147,-0.1323,-0.0972,-0.0622,-0.0342,0.0312,0.1273,0.1822,0.1877,0.206,0.2057,0.2146,0.1857,0.1817,0.178,0.1795,0.2157,0.2158,0.2557,0.2561,0.2564]}],[{"header":{"parameterUnit":"m.s-1","parameterCategory":2,"la1":30.2991,"la2":30.254,"lo1":-89.0895,"lo2":-89.0444,"dy":0.0017,"dx":0.0017,"nx":28,"ny":28,"refTime":"2025-12-06T09:00:00:Z","depth":"2","parameterNumber":2,"parameterNumberName":"U-component_of_CURRENTS"},"data":[0,0,0,0,0,0,0,0,0,0,0,0,0,0,0,0,0,0,0,0,0,0,0,0,0,0,0,0,0,0,0,0,0,0,0,0,0,0,0,0,0,0,0,0,0,0,0,0,0,0,0,0,0,0,0,0,0,0,-0.2602,-0.2602,0,-0.2631,-0.2631,-0.2632,-0.2602,-0.2601,-0.26,-0.2599,-0.258,-0.258,-0.258,0,0,0,0,0,0,0,0,0,0,0,0,0,-0.2533,-0.2534,-0.2602,-0.2602,-0.2603,-0.2631,-0.2631,-0.2632,-0.2602,-0.2601,-0.26,-0.2599,-0.2579,-0.258,-0.258,0,0,0,0,0,0,0,0,0,0,0,0,0,-0.256,-0.2534,-0.2601,-0.2593,-0.2593,-0.2631,-0.2631,-0.2632,-0.2602,-0.2601,-0.26,-0.2598,-0.2579,-0.258,-0.258,-0.2612,0,0,-0.2582,-0.2582,0,0,0,0,0,0,0,0,-0.2559,-0.2562,-0.2594,-0.2594,-0.2594,-0.2614,-0.26,-0.2623,-0.2603,-0.2596,-0.2599,-0.2598,-0.2589,-0.2589,-0.2595,-0.2611,-0.261,-0.2582,-0.2582,-0.2583,-0.2583,0,0,0,0,0,0,0,-0.2557,-0.2561,-0.2611,-0.2595,-0.2595,-0.2593,-0.2595,-0.2604,-0.2597,-0.2597,-0.2595,-0.2603,-0.2588,-0.2594,-0.2594,-0.261,-0.2582,-0.2582,-0.2583,-0.2583,-0.2637,-0.2638,0,0,0,0,0,0,-0.2559,-0.256,-0.261,-0.2612,-0.2575,-0.2595,-0.2598,-0.2607,-0.2598,-0.2597,-0.2604,-0.2602,-0.2594,-0.2593,-0.2593,-0.2625,-0.2583,-0.2583,-0.2583,-0.2636,-0.2637,-0.2638,0,0,0,0,0,0,-0.2558,-0.2564,-0.2609,-0.2588,-0.2594,-0.2598,-0.2609,-0.2608,-0.2613,-0.2605,-0.2602,-0.2609,-0.2593,-0.2592,-0.2605,-0.2624,-0.2583,-0.2584,-0.2635,-0.2636,-0.2638,-0.2692,0,0,0,0,0,0,-0.2556,-0.2563,-0.2567,-0.2588,-0.2595,-0.2634,-0.261,-0.261,-0.2621,-0.2617,-0.2609,-0.2605,-0.2592,-0.2604,-0.2605,-0.2624,-0.2584,-0.2633,-0.2635,-0.2637,-0.2689,-0.2696,-0.2701,0,0,0,0,0,-0.2553,-0.2567,-0.2568,-0.2574,-0.2603,-0.2635,-0.2639,-0.2635,-0.2622,-0.2632,-0.2625,-0.2605,-0.2618,-0.2606,-0.2607,-0.2626,-0.2632,-0.2635,-0.2637,-0.2687,-0.2694,-0.2701,0,0,0,0,0,0,-0.2536,-0.2567,-0.2567,-0.2588,-0.2611,-0.2631,-0.2639,-0.2642,-0.2646,-0.2639,-0.2624,-0.2622,-0.2641,-0.2629,-0.2616,-0.2648,-0.2621,-0.2623,-0.2658,-0.2665,-0.2671,-0.2669,-0.2585,0,0,0,0,0,-0.2538,-0.2554,-0.2585,-0.2599,-0.2613,-0.2628,-0.264,-0.2644,-0.2654,-0.2653,-0.265,-0.2647,-0.2655,-0.2655,-0.266,-0.268,-0.2657,-0.2692,-0.2698,-0.2704,-0.2703,-0.2694,-0.2699,-0.2647,-0.2647,-0.2647,0,0,-0.2534,-0.2553,-0.256,-0.2597,-0.2611,-0.2642,-0.2631,-0.2655,-0.2677,-0.2652,-0.2673,-0.2672,-0.2667,-0.2688,-0.2695,-0.2678,-0.2705,-0.2707,-0.2711,-0.2707,-0.2697,-0.2702,-0.2706,-0.2648,-0.2648,-0.2648,0,0,-0.254,-0.2554,-0.2572,-0.2599,-0.2633,-0.265,-0.2661,-0.269,-0.2696,-0.2725,-0.2711,-0.2722,-0.2733,-0.2734,-0.2735,-0.2779,-0.2742,-0.2781,-0.2806,-0.2798,-0.2802,-0.2805,-0.2776,-0.2776,-0.2779,-0.2779,-0.2779,0,-0.2532,-0.256,-0.2582,-0.2614,-0.2636,-0.2657,-0.2687,-0.2709,-0.2736,-0.2745,-0.2735,-0.2758,-0.2756,-0.2778,-0.2793,-0.2793,-0.2772,-0.2779,-0.2805,-0.2808,-0.281,-0.2779,-0.2778,-0.2782,-0.2782,-0.2782,-0.2781,0,-0.2555,-0.2582,-0.2598,-0.2643,-0.2672,-0.2701,-0.2742,-0.2767,-0.2777,-0.2793,-0.2819,-0.282,-0.2826,-0.2835,-0.2829,-0.285,-0.2824,-0.2817,-0.2785,-0.2818,-0.2784,-0.2782,-0.2786,-0.2785,-0.2784,-0.2784,0,0,-0.2521,-0.2598,-0.2601,-0.2626,-0.2689,-0.2713,-0.2763,-0.2806,-0.2826,-0.2852,-0.2871,-0.2896,-0.2889,-0.289,-0.2884,-0.2882,-0.2884,-0.2859,-0.2857,-0.2825,-0.2848,-0.2766,-0.2756,-0.288,-0.288,-0.2881,-0.2815,0,-0.2527,-0.2583,-0.2625,-0.2675,-0.2705,-0.2752,-0.2793,-0.2836,-0.2863,-0.2889,-0.2899,-0.2915,-0.2913,-0.2912,-0.2915,-0.2896,-0.2883,-0.2901,-0.2823,-0.2821,-0.274,-0.2753,-0.2551,-0.2471,-0.2813,-0.2813,-0.2812,0,-0.2526,-0.2566,-0.2616,-0.2686,-0.2703,-0.2738,-0.2796,-0.2839,-0.2891,-0.291,-0.2933,-0.2939,-0.2953,-0.2938,-0.2918,-0.2928,-0.2892,-0.2871,-0.2867,-0.2769,-0.2735,-0.2494,-0.2454,-0.2809,-0.2809,-0.2809,-0.281,0,-0.2472,-0.2554,-0.2588,-0.2615,-0.2702,-0.2727,-0.2771,-0.2834,-0.2864,-0.2917,-0.2931,-0.2954,-0.2951,-0.2933,-0.29,-0.2907,-0.2859,-0.2859,-0.2746,-0.2739,-0.254,-0.2515,-0.2829,-0.2829,-0.283,-0.283,-0.283,0,-0.2451,-0.2475,-0.2564,-0.2581,-0.2614,-0.2693,-0.2729,-0.2779,-0.2844,-0.2867,-0.2927,-0.2933,-0.2949,-0.2928,-0.2899,-0.2811,-0.2854,-0.2744,-0.2718,-0.2553,-0.2531,-0.2806,-0.2804,-0.2827,-0.2828,-0.2828,-0.2829,0,-0.2372,-0.2439,-0.2475,-0.2563,-0.2586,-0.2605,-0.269,-0.2714,-0.2795,-0.2826,-0.2841,-0.2905,-0.2878,-0.2872,-0.2831,-0.2786,-0.2727,-0.268,-0.2478,-0.243,-0.2611,-0.2613,-0.2547,-0.2544,-0.2541,-0.2539,-0.2537,0,-0.2333,-0.2345,-0.2428,-0.2441,-0.2475,-0.2524,-0.2552,-0.266,-0.2692,-0.2793,-0.2791,-0.2807,-0.277,-0.2693,-0.2622,-0.2534,-0.2627,-0.2308,-0.2291,-0.2601,-0.2583,-0.2589,-0.2595,-0.2043,-0.2037,-0.2033,-0.2029,0,-0.224,-0.2271,-0.2298,-0.2328,-0.2358,-0.2393,-0.2449,-0.2467,-0.2589,-0.2613,-0.2631,-0.2615,-0.2569,-0.2393,-0.231,-0.224,-0.2314,-0.2207,-0.2566,-0.2159,-0.2124,-0.2107,-0.2129,-0.1986,-0.199,-0.1993,-0.1995,-0.1997,-0.2149,-0.214,-0.2176,-0.2186,-0.2221,-0.2228,-0.2205,-0.2274,-0.2284,-0.229,-0.2392,-0.2305,-0.2294,-0.2052,-0.1947,-0.1874,-0.2032,-0.1944,-0.1959,-0.198,-0.1946,-0.1909,-0.1723,-0.1725,-0.1728,-0.173,-0.1732,0,-0.202,-0.2025,-0.203,-0.204,-0.201,-0.2081,-0.21,-0.2047,-0.1994,-0.2036,-0.2014,-0.1808,-0.1689,-0.1692,-0.1509,-0.1476,-0.1465,-0.1417,-0.1405,-0.1448,-0.1486,-0.1429,-0.1067,-0.1065,-0.1064,-0.1062,0,0,-0.1955,-0.1908,-0.1907,-0.1813,-0.1816,-0.1727,-0.1698,-0.1642,-0.1628,-0.1528,-0.1488,-0.16,-0.1639,-0.1358,-0.1288,-0.1151,-0.1287,-0.109,-0.162,-0.1648,-0.1684,-0.1783,-0.1741,0,0,0,0,0]},{"header":{"parameterUnit":"m.s-1","parameterCategory":2,"la1":30.2991,"la2":30.254,"lo1":-89.0895,"lo2":-89.0444,"dy":0.0017,"dx":0.0017,"nx":28,"ny":28,"refTime":"2025-12-06T09:00:00:Z","depth":"2","parameterNumber":3,"parameterNumberName":"V-component_of_CURRENTS"},"data":[0,0,0,0,0,0,0,0,0,0,0,0,0,0,0,0,0,0,0,0,0,0,0,0,0,0,0,0,0,0,0,0,0,0,0,0,0,0,0,0,0,0,0,0,0,0,0,0,0,0,0,0,0,0,0,0,0,0,-0.0267,-0.0266,0,-0.0187,-0.0185,-0.0184,-0.0127,-0.0126,-0.0126,-0.0126,0.0003,0.0006,0.0009,0,0,0,0,0,0,0,0,0,0,0,0,0,-0.0316,-0.0316,-0.0267,-0.0266,-0.0265,-0.0187,-0.0185,-0.0184,-0.0127,-0.0126,-0.0126,-0.0125,0.0002,0.0005,0.0009,0,0,0,0,0,0,0,0,0,0,0,0,0,-0.027,-0.0316,-0.0267,-0.0229,-0.0224,-0.0187,-0.0185,-0.0184,-0.0127,-0.0126,-0.0126,-0.0125,0.0,0.0005,0.001,0.0029,0,0,0.0024,0.0026,0,0,0,0,0,0,0,0,-0.0273,-0.0268,-0.0235,-0.0231,-0.0226,-0.0168,-0.0156,-0.0111,-0.0127,-0.0162,-0.0126,-0.0125,-0.0051,-0.0042,-0.0026,0.0035,0.0041,0.0024,0.0027,0.0029,0.0031,0,0,0,0,0,0,0,-0.0276,-0.0271,-0.0233,-0.0234,-0.0229,-0.0196,-0.019,-0.0147,-0.0108,-0.0159,-0.0155,-0.0149,-0.0048,-0.0031,-0.0023,0.0043,0.0024,0.0028,0.0031,0.0033,0.0143,0.0143,0,0,0,0,0,0,-0.0293,-0.0274,-0.0236,-0.0231,-0.0251,-0.0196,-0.0189,-0.0186,-0.0109,-0.0098,-0.0149,-0.0146,-0.0039,-0.0028,-0.0018,0.0011,0.0029,0.0034,0.0036,0.0143,0.0143,0.0143,0,0,0,0,0,0,-0.0294,-0.029,-0.0239,-0.0252,-0.0243,-0.0197,-0.0193,-0.0184,-0.0168,-0.0103,-0.009,-0.0143,-0.0039,-0.0025,0.0018,0.0016,0.0036,0.004,0.0143,0.0143,0.0143,0.0068,0,0,0,0,0,0,-0.0296,-0.0291,-0.0297,-0.0253,-0.0243,-0.0226,-0.0194,-0.0183,-0.0166,-0.0161,-0.0093,-0.0081,-0.0037,0.001,0.0022,0.0023,0.0044,0.0143,0.0143,0.0143,0.0071,0.0066,0.0062,0,0,0,0,0,-0.0298,-0.031,-0.0298,-0.0293,-0.0252,-0.0226,-0.0218,-0.0182,-0.0166,-0.0164,-0.0116,-0.0083,0.0021,0.0014,0.0028,0.003,0.0143,0.0143,0.0143,0.0073,0.0067,0.0062,0,0,0,0,0,0,-0.0334,-0.0305,-0.029,-0.0292,-0.0265,-0.0218,-0.0214,-0.0189,-0.015,-0.0145,-0.0082,-0.0066,-0.0029,0.0011,0.0002,0.0064,0.0087,0.009,0.0029,0.0024,0.002,0.0004,0.0048,0,0,0,0,0,-0.0346,-0.0347,-0.0311,-0.0313,-0.0304,-0.026,-0.0246,-0.0222,-0.0182,-0.0165,-0.0117,-0.0064,-0.0017,0.001,0.0056,0.0088,0.0132,0.01,0.0095,0.0091,0.0089,0.0152,0.0152,0.0144,0.0144,0.0144,0,0,-0.036,-0.0345,-0.0345,-0.0321,-0.0297,-0.0291,-0.025,-0.0236,-0.0226,-0.0157,-0.0129,-0.0079,-0.0012,0.0024,0.0045,0.0058,0.0117,0.0091,0.0087,0.0088,0.0152,0.0153,0.0153,0.0144,0.0144,0.0144,0,0,-0.0395,-0.0377,-0.0391,-0.0375,-0.0349,-0.0319,-0.0319,-0.0276,-0.0252,-0.0221,-0.0167,-0.0119,-0.0052,-0.0002,0.0033,0.0032,0.0089,0.0046,0.0015,0.0075,0.0076,0.0077,0.0129,0.0136,0.0046,0.0046,0.0046,0,-0.0415,-0.0426,-0.0391,-0.04,-0.0392,-0.0337,-0.0349,-0.0315,-0.0263,-0.0241,-0.0224,-0.0115,-0.0063,-0.0005,-0.0006,0.0022,0.0062,0.0026,0.0068,0.007,0.0073,0.0126,0.0134,0.0042,0.0043,0.0043,0.0043,0,-0.0458,-0.0466,-0.0473,-0.0465,-0.045,-0.0451,-0.0404,-0.0382,-0.0346,-0.0305,-0.0247,-0.0171,-0.0104,-0.0081,-0.0043,0.0004,0.0027,0.0051,0.0076,0.0069,0.0126,0.0136,0.0037,0.0038,0.0039,0.004,0,0,-0.0504,-0.0506,-0.0508,-0.0518,-0.0487,-0.048,-0.046,-0.0423,-0.0406,-0.0344,-0.0311,-0.0227,-0.0179,-0.0137,-0.0077,-0.0024,0.0026,0.0013,0.0018,0.0055,0.0155,0.0187,0.0201,0.0056,0.0057,0.0058,0.0184,0,-0.0549,-0.0592,-0.0569,-0.0595,-0.0611,-0.0557,-0.0543,-0.0499,-0.0445,-0.0398,-0.0305,-0.0252,-0.0201,-0.017,-0.0108,-0.0004,0.005,-0.001,0.0165,0.017,0.0192,0.0213,0.0183,0.0293,0.0194,0.0196,0.0197,0,-0.0599,-0.0621,-0.0665,-0.0667,-0.0667,-0.0667,-0.063,-0.0609,-0.0522,-0.0479,-0.0401,-0.0324,-0.0228,-0.019,-0.0017,-0.0058,0.0037,0.0116,0.0124,0.0187,0.0221,0.0288,0.0316,0.0214,0.0213,0.0212,0.0211,0,-0.0658,-0.0683,-0.0724,-0.0726,-0.0718,-0.0719,-0.0703,-0.0637,-0.0617,-0.0526,-0.0493,-0.0367,-0.03,-0.0164,0.0005,-0.0006,0.0196,0.0206,0.0327,0.033,0.0357,0.036,0.0324,0.0324,0.0323,0.0323,0.0323,0,-0.0717,-0.0746,-0.0758,-0.0782,-0.0819,-0.0784,-0.0793,-0.0753,-0.0691,-0.0662,-0.0541,-0.048,-0.0292,-0.0149,-0.0004,0.02,0.0197,0.033,0.037,0.033,0.0329,0.0302,0.0298,0.0328,0.0327,0.0326,0.0325,0,-0.0776,-0.0784,-0.0833,-0.0847,-0.0853,-0.0878,-0.0867,-0.0864,-0.0795,-0.075,-0.0724,-0.0559,-0.0367,-0.0167,0.0066,0.0189,0.0377,0.0448,0.0385,0.0415,0.047,0.0461,0.0591,0.0594,0.0596,0.0597,0.0599,0,-0.0809,-0.0844,-0.0891,-0.0927,-0.0937,-0.0964,-0.0978,-0.0928,-0.0914,-0.0789,-0.0769,-0.058,-0.0424,-0.0066,0.0179,0.0447,0.0444,0.0563,0.0541,0.0474,0.0501,0.0488,0.0476,0.0547,0.0548,0.0549,0.0549,0,-0.087,-0.0887,-0.0928,-0.1007,-0.1043,-0.1075,-0.1085,-0.1092,-0.1014,-0.0942,-0.0809,-0.0672,-0.0329,-0.0033,0.0304,0.0455,0.0517,0.0586,0.0556,0.0477,0.0441,0.0464,0.0452,0.0555,0.0555,0.0554,0.0554,0.0554,-0.0904,-0.0953,-0.1011,-0.1078,-0.1126,-0.1167,-0.1182,-0.1158,-0.1115,-0.0978,-0.085,-0.0603,-0.0333,0.0159,0.0392,0.0608,0.0604,0.0658,0.0652,0.0647,0.0612,0.0582,0.0715,0.0715,0.0716,0.0716,0.0716,0,-0.0944,-0.1,-0.1076,-0.1151,-0.1207,-0.1214,-0.1232,-0.12,-0.1132,-0.0972,-0.08,-0.0472,-0.0139,0.0148,0.0493,0.0693,0.0669,0.0721,0.0647,0.0641,0.0635,0.0597,0.0697,0.0698,0.0698,0.0698,0,0,-0.0966,-0.1046,-0.1088,-0.1191,-0.1243,-0.1277,-0.1279,-0.12,-0.1078,-0.0892,-0.07,-0.0459,-0.0117,0.0119,0.0367,0.0545,0.054,0.0561,0.0557,0.0435,0.0427,0.0583,0.0516,0,0,0,0,0]}],[{"header":{"parameterUnit":"m.s-1","parameterCategory":2,"la1":30.2991,"la2":30.254,"lo1":-89.0895,"lo2":-89.0444,"dy":0.0017,"dx":0.0017,"nx":28,"ny":28,"refTime":"2025-12-06T09:00:00:Z","depth":"4","parameterNumber":2,"parameterNumberName":"U-component_of_CURRENTS"},"data":[0,0,0,0,0,0,0,0,0,0,0,0,0,0,0,0,0,0,0,0,0,0,0,0,0,0,0,0,0,0,0,0,0,0,0,0,0,0,0,0,0,0,0,0,0,0,0,0,0,0,0,0,0,0,0,0,0,0,-0.1789,-0.179,0,-0.1857,-0.1857,-0.1858,-0.1896,-0.1896,-0.1896,-0.1896,-0.1961,-0.1962,-0.1964,0,0,0,0,0,0,0,0,0,0,0,0,0,-0.1707,-0.1708,-0.1789,-0.179,-0.1791,-0.1857,-0.1857,-0.1858,-0.1896,-0.1896,-0.1896,-0.1897,-0.1961,-0.1962,-0.1964,0,0,0,0,0,0,0,0,0,0,0,0,0,-0.1754,-0.1708,-0.1789,-0.1819,-0.1822,-0.1857,-0.1857,-0.1858,-0.1896,-0.1896,-0.1896,-0.1897,-0.196,-0.1962,-0.1964,-0.197,0,0,-0.1971,-0.1972,0,0,0,0,0,0,0,0,-0.1751,-0.1757,-0.1813,-0.1817,-0.1821,-0.187,-0.1852,-0.1896,-0.1896,-0.1866,-0.1896,-0.1897,-0.1931,-0.1935,-0.1945,-0.1973,-0.1976,-0.1971,-0.1973,-0.1974,-0.1974,0,0,0,0,0,0,0,-0.1748,-0.1754,-0.1814,-0.1814,-0.1819,-0.1834,-0.1841,-0.1861,-0.1894,-0.1869,-0.1872,-0.1882,-0.1933,-0.1943,-0.1947,-0.1977,-0.1971,-0.1973,-0.1975,-0.1975,-0.2083,-0.2084,0,0,0,0,0,0,-0.1742,-0.1751,-0.1812,-0.1816,-0.1788,-0.1835,-0.1843,-0.1852,-0.1894,-0.1901,-0.1882,-0.1883,-0.1939,-0.1944,-0.1949,-0.2031,-0.1974,-0.1976,-0.1977,-0.2081,-0.2083,-0.2085,0,0,0,0,0,0,-0.174,-0.1746,-0.1809,-0.1786,-0.1796,-0.1836,-0.1847,-0.1853,-0.1893,-0.1904,-0.1911,-0.1918,-0.1939,-0.1946,-0.1996,-0.2031,-0.1977,-0.1979,-0.2079,-0.2082,-0.2084,-0.2147,0,0,0,0,0,0,-0.1737,-0.1745,-0.1764,-0.1786,-0.1797,-0.1849,-0.1847,-0.1855,-0.1898,-0.1902,-0.1937,-0.1942,-0.194,-0.1993,-0.1998,-0.2033,-0.198,-0.2077,-0.208,-0.2083,-0.2143,-0.2152,-0.2159,0,0,0,0,0,-0.1734,-0.1753,-0.1765,-0.1773,-0.1817,-0.185,-0.1858,-0.1886,-0.1899,-0.1923,-0.195,-0.1942,-0.2014,-0.1996,-0.2002,-0.2038,-0.2076,-0.208,-0.2083,-0.214,-0.215,-0.2158,0,0,0,0,0,0,-0.1729,-0.176,-0.1772,-0.1802,-0.1834,-0.1858,-0.1886,-0.1905,-0.1945,-0.1958,-0.1965,-0.1972,-0.2028,-0.2025,-0.2004,-0.2077,-0.2043,-0.2048,-0.2084,-0.2094,-0.2101,-0.2093,-0.1982,0,0,0,0,0,-0.1736,-0.176,-0.179,-0.1817,-0.1835,-0.1867,-0.1891,-0.1912,-0.1944,-0.1963,-0.199,-0.2016,-0.2041,-0.2062,-0.2083,-0.2125,-0.2103,-0.2151,-0.2159,-0.2165,-0.2163,-0.2163,-0.217,-0.2096,-0.2096,-0.2096,0,0,-0.1743,-0.1763,-0.1778,-0.1818,-0.1846,-0.1881,-0.1883,-0.1929,-0.1966,-0.1963,-0.2031,-0.2049,-0.2059,-0.2107,-0.2131,-0.2113,-0.2175,-0.217,-0.2175,-0.2169,-0.2168,-0.2175,-0.2181,-0.2098,-0.2098,-0.2097,0,0,-0.1758,-0.1787,-0.1811,-0.1842,-0.189,-0.1911,-0.1932,-0.1978,-0.201,-0.2069,-0.2076,-0.2115,-0.2162,-0.2173,-0.2183,-0.2245,-0.2217,-0.2258,-0.2292,-0.2293,-0.2299,-0.2304,-0.2282,-0.2285,-0.2261,-0.2261,-0.2261,0,-0.1768,-0.1798,-0.1825,-0.1858,-0.1889,-0.1929,-0.1966,-0.2004,-0.2064,-0.2091,-0.2101,-0.2172,-0.2189,-0.2231,-0.2256,-0.2262,-0.2249,-0.2257,-0.2302,-0.2306,-0.231,-0.2287,-0.2289,-0.2265,-0.2264,-0.2264,-0.2264,0,-0.179,-0.1831,-0.1851,-0.1903,-0.1942,-0.1983,-0.2034,-0.2085,-0.2128,-0.2158,-0.2225,-0.2248,-0.2284,-0.2302,-0.2302,-0.2344,-0.2321,-0.2311,-0.2276,-0.2321,-0.2294,-0.2295,-0.227,-0.2268,-0.2267,-0.2267,0,0,-0.1765,-0.185,-0.1861,-0.1895,-0.1972,-0.2001,-0.2073,-0.2135,-0.2177,-0.2241,-0.2286,-0.2343,-0.2356,-0.2366,-0.2375,-0.2383,-0.2405,-0.2366,-0.2365,-0.2339,-0.2393,-0.2235,-0.222,-0.2406,-0.2406,-0.2407,-0.2362,0,-0.1776,-0.1839,-0.1884,-0.1955,-0.199,-0.2056,-0.2114,-0.2179,-0.2233,-0.2289,-0.2325,-0.2372,-0.238,-0.2402,-0.2416,-0.2411,-0.241,-0.2416,-0.2358,-0.2356,-0.2204,-0.2217,-0.2409,-0.2363,-0.2363,-0.2363,-0.2363,0,-0.1772,-0.1818,-0.1887,-0.1977,-0.2,-0.2054,-0.2146,-0.2204,-0.2286,-0.2328,-0.2381,-0.2405,-0.2446,-0.2438,-0.2446,-0.2452,-0.2429,-0.2415,-0.2413,-0.224,-0.2198,-0.2309,-0.2363,-0.2363,-0.2363,-0.2363,-0.2363,0,-0.1717,-0.1816,-0.1871,-0.1905,-0.2013,-0.2064,-0.2126,-0.2217,-0.2262,-0.2352,-0.2382,-0.2435,-0.2456,-0.2455,-0.2441,-0.2449,-0.2422,-0.2424,-0.2254,-0.2243,-0.2372,-0.2367,-0.2412,-0.2412,-0.2412,-0.2412,-0.2413,0,-0.1687,-0.1734,-0.1857,-0.1885,-0.1951,-0.2043,-0.2115,-0.2184,-0.2272,-0.2306,-0.2395,-0.2406,-0.2462,-0.2456,-0.2442,-0.2336,-0.2421,-0.2248,-0.2218,-0.24,-0.2399,-0.2371,-0.2367,-0.2411,-0.2411,-0.2411,-0.2412,0,-0.1605,-0.1691,-0.1756,-0.1883,-0.1925,-0.1972,-0.2095,-0.2133,-0.2238,-0.2281,-0.2309,-0.2387,-0.2371,-0.2392,-0.2376,-0.2306,-0.2244,-0.2184,-0.2364,-0.2347,-0.2065,-0.2065,-0.1986,-0.198,-0.1974,-0.197,-0.1967,0,-0.1562,-0.1591,-0.173,-0.1766,-0.1827,-0.1916,-0.1964,-0.2095,-0.2126,-0.2239,-0.2232,-0.2268,-0.2296,-0.2134,-0.2189,-0.2124,-0.2102,-0.2058,-0.2072,-0.2041,-0.2021,-0.2029,-0.2036,-0.1958,-0.1957,-0.1956,-0.1955,0,-0.1471,-0.1537,-0.159,-0.1664,-0.173,-0.1787,-0.1869,-0.1874,-0.2003,-0.2122,-0.2082,-0.2063,-0.2033,-0.2012,-0.1968,-0.1933,-0.2085,-0.2004,-0.2015,-0.2029,-0.2008,-0.1994,-0.2007,-0.1937,-0.1939,-0.1941,-0.1942,0,-0.14,-0.1411,-0.1488,-0.1533,-0.161,-0.1621,-0.1689,-0.1714,-0.1761,-0.1894,-0.1872,-0.192,-0.2,-0.191,-0.1878,-0.1821,-0.1799,-0.1745,-0.1769,-0.1789,-0.1747,-0.1693,-0.1484,0,0,0,0,0,-0.1316,-0.131,-0.1346,-0.139,-0.1458,-0.1497,-0.16,-0.1671,-0.1799,-0.1713,-0.1786,-0.1751,-0.17,-0.1733,-0.1629,-0.1793,-0.1809,-0.1667,-0.1762,-0.1839,-0.1859,-0.1828,0,0,0,0,0,0,-0.1261,-0.129,-0.1295,-0.1252,-0.1251,-0.1306,-0.1361,-0.1454,-0.1418,-0.1554,-0.1527,-0.1637,-0.1607,-0.1717,-0.1587,-0.1596,-0.1618,-0.1712,-0.1707,-0.1827,-0.1846,-0.1862,-0.1837,0,0,0,0,0]},{"header":{"parameterUnit":"m.s-1","parameterCategory":2,"la1":30.2991,"la2":30.254,"lo1":-89.0895,"lo2":-89.0444,"dy":0.0017,"dx":0.0017,"nx":28,"ny":28,"refTime":"2025-12-06T09:00:00:Z","depth":"4","parameterNumber":3,"parameterNumberName":"V-component_of_CURRENTS"},"data":[0,0,0,0,0,0,0,0,0,0,0,0,0,0,0,0,0,0,0,0,0,0,0,0,0,0,0,0,0,0,0,0,0,0,0,0,0,0,0,0,0,0,0,0,0,0,0,0,0,0,0,0,0,0,0,0,0,0,-0.0161,-0.0161,0,-0.011,-0.011,-0.0109,-0.007,-0.007,-0.0069,-0.0069,0.0028,0.0031,0.0033,0,0,0,0,0,0,0,0,0,0,0,0,0,-0.0182,-0.0182,-0.0161,-0.0161,-0.016,-0.011,-0.011,-0.0109,-0.007,-0.007,-0.0069,-0.0069,0.0028,0.003,0.0033,0,0,0,0,0,0,0,0,0,0,0,0,0,-0.0155,-0.0182,-0.0161,-0.0136,-0.0133,-0.0111,-0.011,-0.0109,-0.007,-0.007,-0.0069,-0.0069,0.0027,0.003,0.0034,0.0049,0,0,0.0045,0.0046,0,0,0,0,0,0,0,0,-0.0157,-0.0154,-0.014,-0.0138,-0.0135,-0.0097,-0.0081,-0.0054,-0.007,-0.0092,-0.0069,-0.0069,-0.0011,-0.0004,0.0006,0.0053,0.0058,0.0045,0.0047,0.0049,0.005,0,0,0,0,0,0,0,-0.0159,-0.0156,-0.014,-0.014,-0.0136,-0.0113,-0.0109,-0.0076,-0.0052,-0.009,-0.0088,-0.0085,-0.0008,0.0003,0.0009,0.0059,0.0045,0.0048,0.005,0.0052,0.0138,0.0138,0,0,0,0,0,0,-0.0171,-0.0158,-0.0141,-0.0138,-0.0147,-0.0113,-0.0108,-0.0108,-0.0053,-0.0045,-0.0085,-0.0083,-0.0004,0.0005,0.0013,0.0034,0.0049,0.0052,0.0054,0.0138,0.0138,0.0138,0,0,0,0,0,0,-0.0171,-0.017,-0.0143,-0.0148,-0.0143,-0.0113,-0.0114,-0.0108,-0.0098,-0.005,-0.0041,-0.0082,-0.0003,0.0008,0.0039,0.0038,0.0053,0.0057,0.0137,0.0138,0.0138,0.0077,0,0,0,0,0,0,-0.0172,-0.017,-0.0177,-0.0149,-0.0143,-0.0137,-0.0114,-0.0107,-0.0098,-0.0095,-0.0045,-0.0035,-0.0002,0.0034,0.0043,0.0043,0.006,0.0137,0.0137,0.0138,0.0079,0.0075,0.0072,0,0,0,0,0,-0.0173,-0.0185,-0.0178,-0.0176,-0.0153,-0.0138,-0.0132,-0.0109,-0.0098,-0.0098,-0.0062,-0.0037,0.0042,0.0036,0.0047,0.0049,0.0137,0.0137,0.0138,0.008,0.0076,0.0072,0,0,0,0,0,0,-0.0197,-0.0181,-0.0173,-0.018,-0.0163,-0.0132,-0.0132,-0.0114,-0.0087,-0.0084,-0.0036,-0.0024,0.0004,0.0035,0.0028,0.0076,0.0095,0.0097,0.0047,0.0044,0.004,0.0028,0.0062,0,0,0,0,0,-0.0207,-0.0212,-0.019,-0.0196,-0.0191,-0.0162,-0.0154,-0.0139,-0.0111,-0.0099,-0.0063,-0.0023,0.0014,0.0034,0.0069,0.0094,0.0129,0.0103,0.01,0.0097,0.0095,0.0147,0.0148,0.0139,0.0139,0.0139,0,0,-0.0218,-0.0211,-0.0214,-0.0202,-0.0187,-0.0186,-0.0156,-0.015,-0.0145,-0.0092,-0.0075,-0.0035,0.0017,0.0045,0.006,0.0071,0.0117,0.0097,0.0094,0.0094,0.0147,0.0148,0.0149,0.0139,0.0139,0.0139,0,0,-0.0245,-0.0237,-0.0251,-0.0242,-0.0228,-0.0208,-0.021,-0.0182,-0.0166,-0.0146,-0.0104,-0.0066,-0.0016,0.0024,0.0051,0.0051,0.0096,0.0062,0.0037,0.0087,0.0088,0.0089,0.0128,0.0134,0.0062,0.0062,0.0062,0,-0.026,-0.0274,-0.0252,-0.0261,-0.026,-0.0222,-0.0235,-0.0212,-0.0177,-0.0163,-0.0149,-0.0066,-0.0025,0.002,0.002,0.0043,0.0074,0.0045,0.0081,0.0083,0.0086,0.0126,0.0132,0.0059,0.0059,0.0059,0.006,0,-0.0294,-0.0306,-0.0313,-0.0313,-0.0306,-0.0311,-0.0281,-0.0268,-0.0244,-0.0215,-0.0172,-0.0111,-0.006,-0.004,-0.001,0.0029,0.0047,0.0068,0.0087,0.0083,0.0126,0.0133,0.0055,0.0056,0.0057,0.0057,0,0,-0.0325,-0.0337,-0.034,-0.0353,-0.0337,-0.0336,-0.0326,-0.0304,-0.0297,-0.0249,-0.0229,-0.016,-0.0122,-0.0089,-0.0039,0.0006,0.0048,0.0037,0.0041,0.0068,0.0151,0.0137,0.0144,0.0074,0.0075,0.0076,0.0171,0,-0.0359,-0.0398,-0.0387,-0.0417,-0.0433,-0.0399,-0.0395,-0.0368,-0.0331,-0.03,-0.0225,-0.0186,-0.0141,-0.0117,-0.0064,0.0021,0.0067,0.0019,0.0159,0.0163,0.0144,0.0153,0.008,0.0178,0.018,0.0181,0.0182,0,-0.0394,-0.0418,-0.046,-0.0476,-0.0479,-0.0488,-0.0473,-0.0462,-0.0402,-0.0372,-0.0311,-0.025,-0.0172,-0.0136,0.0007,-0.0026,0.0054,0.0121,0.0126,0.014,0.0164,0.0188,0.0197,0.0196,0.0195,0.0194,0.0193,0,-0.0433,-0.0465,-0.0505,-0.0511,-0.052,-0.0531,-0.0529,-0.0488,-0.048,-0.0415,-0.0394,-0.029,-0.0237,-0.0122,0.0017,0.0013,0.0175,0.0189,0.0254,0.0254,0.0264,0.0262,0.0288,0.0288,0.0288,0.0287,0.0287,0,-0.047,-0.0502,-0.0532,-0.0554,-0.0598,-0.0582,-0.0606,-0.0583,-0.0546,-0.0531,-0.0436,-0.0391,-0.0231,-0.0117,0.0007,0.0154,0.0171,0.0251,0.0279,0.0236,0.023,0.027,0.0266,0.0291,0.029,0.0289,0.0289,0,-0.0501,-0.0521,-0.0573,-0.0606,-0.0621,-0.0651,-0.067,-0.0676,-0.0634,-0.0608,-0.059,-0.0462,-0.0312,-0.0148,0.0046,0.0132,0.0278,0.0328,0.0264,0.0287,0.0325,0.0318,0.0401,0.0402,0.0402,0.0402,0.0402,0,-0.0518,-0.055,-0.0618,-0.0658,-0.0679,-0.0721,-0.0746,-0.0726,-0.0722,-0.0644,-0.0627,-0.0488,-0.0385,-0.0116,0.0046,0.0275,0.0306,0.0369,0.035,0.0318,0.0338,0.033,0.0322,0.0403,0.0403,0.0403,0.0403,0,-0.0548,-0.0578,-0.062,-0.0707,-0.0756,-0.0799,-0.0826,-0.0832,-0.079,-0.0758,-0.0638,-0.0491,-0.0322,-0.0116,0.006,0.0224,0.0319,0.0373,0.0373,0.0356,0.0321,0.0339,0.0331,0.0404,0.0404,0.0404,0.0404,0,-0.0565,-0.0606,-0.067,-0.0739,-0.0808,-0.0849,-0.0865,-0.084,-0.0823,-0.0728,-0.0689,-0.0493,-0.0377,-0.0142,0.0024,0.0178,0.0212,0.0249,0.0256,0.0257,0.0182,0.0115,0.0161,0,0,0,0,0,-0.0574,-0.0622,-0.0695,-0.0769,-0.0837,-0.0869,-0.09,-0.0899,-0.0864,-0.0782,-0.0729,-0.0562,-0.0303,-0.0186,-0.0033,0.0008,0.0218,0.0189,0.0259,0.0409,0.0408,0.0343,0,0,0,0,0,0,-0.0582,-0.0653,-0.0692,-0.0773,-0.0824,-0.0886,-0.0906,-0.0887,-0.0828,-0.0771,-0.0626,-0.0538,-0.0282,-0.0382,-0.003,0.0016,0.0076,0.0317,0.032,0.041,0.0409,0.0408,0.0341,0,0,0,0,0]}]]